contact:dominique.lefevre@mio.osupytheas.fr, maurice.libes@osupytheas.fr, didier.mallarino@osupytheas.fr
Project:EMSO http://www.emso-fr.org/EMSO-France
Depth: 2436.0 m
Title:EMSO Ligure Ouest : Data MII capteur MICROCAT
DateTime_Computer,Latitude,Longitude,Temperature,Conductivity,Pressure,DateTime_Instrument
DateTime_Computer,Latitude,Longitude,degC,S m-1,dbar,DateTime_Instrument
2022-06-06T00:01:47Z,42.805,6.029,13.3047,4.60051,2470.777,2022-6-06T02:03:29Z
2022-06-06T00:04:50Z,42.805,6.029,13.3035,4.60067,2470.74,2022-6-06T02:06:32Z
2022-06-06T00:07:53Z,42.805,6.029,13.3034,4.60079,2470.8,2022-6-06T02:09:35Z
2022-06-06T00:10:56Z,42.805,6.029,13.3034,4.60085,2470.74,2022-6-06T02:12:39Z
2022-06-06T00:13:59Z,42.805,6.029,13.3037,4.60062,2470.754,2022-6-06T02:15:42Z
2022-06-06T00:17:02Z,42.805,6.029,13.3039,4.60057,2470.74,2022-6-06T02:18:45Z
2022-06-06T00:20:05Z,42.805,6.029,13.3036,4.60076,2470.74,2022-6-06T02:21:48Z
2022-06-06T00:23:08Z,42.805,6.029,13.3046,4.60062,2470.763,2022-6-06T02:24:51Z
2022-06-06T00:26:11Z,42.805,6.029,13.3038,4.60053,2470.763,2022-6-06T02:27:54Z
2022-06-06T00:29:15Z,42.805,6.029,13.3029,4.60089,2470.777,2022-6-06T02:30:57Z
2022-06-06T00:32:18Z,42.805,6.029,13.3064,4.60069,2470.74,2022-6-06T02:34:00Z
2022-06-06T00:35:21Z,42.805,6.029,13.3085,4.60069,2470.754,2022-6-06T02:37:03Z
2022-06-06T00:38:24Z,42.805,6.029,13.3060,4.60063,2470.754,2022-6-06T02:40:07Z
2022-06-06T00:41:27Z,42.805,6.029,13.3051,4.60072,2470.73,2022-6-06T02:43:10Z
2022-06-06T00:44:30Z,42.805,6.029,13.3044,4.60076,2470.754,2022-6-06T02:46:13Z
2022-06-06T00:47:33Z,42.805,6.029,13.3051,4.60074,2470.777,2022-6-06T02:49:16Z
2022-06-06T00:50:36Z,42.805,6.029,13.3048,4.60066,2470.754,2022-6-06T02:52:19Z
2022-06-06T00:53:40Z,42.805,6.029,13.3054,4.60070,2470.754,2022-6-06T02:55:22Z
2022-06-06T00:56:43Z,42.805,6.029,13.3045,4.60072,2470.717,2022-6-06T02:58:25Z
2022-06-06T00:59:46Z,42.805,6.029,13.3055,4.60062,2470.717,2022-6-06T03:01:28Z
2022-06-06T01:02:49Z,42.805,6.029,13.3048,4.60076,2470.74,2022-6-06T03:04:32Z
2022-06-06T01:05:52Z,42.805,6.029,13.3049,4.60084,2470.73,2022-6-06T03:07:35Z
2022-06-06T01:08:55Z,42.805,6.029,13.3069,4.60069,2470.777,2022-6-06T03:10:38Z
2022-06-06T01:11:58Z,42.805,6.029,13.3061,4.60089,2470.74,2022-6-06T03:13:41Z
2022-06-06T01:15:01Z,42.805,6.029,13.3051,4.60068,2470.777,2022-6-06T03:16:44Z
2022-06-06T01:18:04Z,42.805,6.029,13.3063,4.60072,2470.74,2022-6-06T03:19:47Z
2022-06-06T01:21:08Z,42.805,6.029,13.3046,4.60066,2470.73,2022-6-06T03:22:50Z
2022-06-06T01:24:11Z,42.805,6.029,13.3054,4.60072,2470.73,2022-6-06T03:25:53Z
2022-06-06T01:27:14Z,42.805,6.029,13.3043,4.60067,2470.74,2022-6-06T03:28:56Z
2022-06-06T01:30:17Z,42.805,6.029,13.3046,4.60062,2470.787,2022-6-06T03:32:00Z
2022-06-06T01:33:20Z,42.805,6.029,13.3051,4.60077,2470.717,2022-6-06T03:35:03Z
2022-06-06T01:36:23Z,42.805,6.029,13.3055,4.60072,2470.74,2022-6-06T03:38:06Z
2022-06-06T01:39:26Z,42.805,6.029,13.3062,4.60062,2470.717,2022-6-06T03:41:09Z
2022-06-06T01:42:29Z,42.805,6.029,13.3041,4.60082,2470.777,2022-6-06T03:44:12Z
2022-06-06T01:45:32Z,42.805,6.029,13.3039,4.60071,2470.754,2022-6-06T03:47:15Z
2022-06-06T01:48:36Z,42.805,6.029,13.3048,4.60064,2470.74,2022-6-06T03:50:18Z
2022-06-06T01:51:39Z,42.805,6.029,13.3056,4.60074,2470.74,2022-6-06T03:53:21Z
2022-06-06T01:54:42Z,42.805,6.029,13.3066,4.60072,2470.754,2022-6-06T03:56:25Z
2022-06-06T01:57:45Z,42.805,6.029,13.3066,4.60067,2470.763,2022-6-06T03:59:28Z
2022-06-06T02:00:48Z,42.805,6.029,13.3053,4.60067,2470.717,2022-6-06T04:02:31Z
2022-06-06T02:03:51Z,42.805,6.029,13.3048,4.60067,2470.73,2022-6-06T04:05:34Z
2022-06-06T02:06:54Z,42.805,6.029,13.3042,4.60066,2470.73,2022-6-06T04:08:37Z
2022-06-06T02:09:57Z,42.805,6.029,13.3043,4.60062,2470.73,2022-6-06T04:11:40Z
2022-06-06T02:13:01Z,42.805,6.029,13.3035,4.60067,2470.717,2022-6-06T04:14:43Z
2022-06-06T02:16:04Z,42.805,6.029,13.3041,4.60069,2470.693,2022-6-06T04:17:46Z
2022-06-06T02:19:07Z,42.805,6.029,13.3054,4.60063,2470.763,2022-6-06T04:20:49Z
2022-06-06T02:22:10Z,42.805,6.029,13.3029,4.60064,2470.73,2022-6-06T04:23:53Z
2022-06-06T02:25:13Z,42.805,6.029,13.3040,4.60062,2470.754,2022-6-06T04:26:56Z
2022-06-06T02:28:16Z,42.805,6.029,13.3038,4.60073,2470.707,2022-6-06T04:29:59Z
2022-06-06T02:31:19Z,42.805,6.029,13.3029,4.60060,2470.693,2022-6-06T04:33:02Z
2022-06-06T02:34:22Z,42.805,6.029,13.3029,4.60061,2470.717,2022-6-06T04:36:05Z
2022-06-06T02:37:25Z,42.805,6.029,13.3034,4.60058,2470.717,2022-6-06T04:39:08Z
2022-06-06T02:40:29Z,42.805,6.029,13.3027,4.60057,2470.693,2022-6-06T04:42:11Z
2022-06-06T02:43:32Z,42.805,6.029,13.3034,4.60063,2470.707,2022-6-06T04:45:14Z
2022-06-06T02:46:35Z,42.805,6.029,13.3034,4.60062,2470.693,2022-6-06T04:48:17Z
2022-06-06T02:49:38Z,42.805,6.029,13.3028,4.60061,2470.693,2022-6-06T04:51:21Z
2022-06-06T02:52:41Z,42.805,6.029,13.3034,4.60059,2470.73,2022-6-06T04:54:24Z
2022-06-06T02:55:44Z,42.805,6.029,13.3036,4.60062,2470.73,2022-6-06T04:57:27Z
2022-06-06T02:58:47Z,42.805,6.029,13.3032,4.60072,2470.717,2022-6-06T05:00:30Z
2022-06-06T03:01:50Z,42.805,6.029,13.3029,4.60065,2470.67,2022-6-06T05:03:33Z
2022-06-06T03:04:54Z,42.805,6.029,13.3040,4.60061,2470.693,2022-6-06T05:06:36Z
2022-06-06T03:07:57Z,42.805,6.029,13.3035,4.60060,2470.693,2022-6-06T05:09:39Z
2022-06-06T03:11:00Z,42.805,6.029,13.3028,4.60074,2470.717,2022-6-06T05:12:42Z
2022-06-06T03:14:03Z,42.805,6.029,13.3039,4.60059,2470.707,2022-6-06T05:15:46Z
2022-06-06T03:17:06Z,42.805,6.029,13.3040,4.60072,2470.67,2022-6-06T05:18:49Z
2022-06-06T03:20:09Z,42.805,6.029,13.3029,4.60066,2470.684,2022-6-06T05:21:52Z
2022-06-06T03:23:12Z,42.805,6.029,13.3039,4.60083,2470.693,2022-6-06T05:24:55Z
2022-06-06T03:26:15Z,42.805,6.029,13.3043,4.60074,2470.73,2022-6-06T05:27:58Z
2022-06-06T03:29:18Z,42.805,6.029,13.3027,4.60067,2470.693,2022-6-06T05:31:01Z
2022-06-06T03:32:22Z,42.805,6.029,13.3036,4.60052,2470.693,2022-6-06T05:34:04Z
2022-06-06T03:35:25Z,42.805,6.029,13.3026,4.60062,2470.67,2022-6-06T05:37:07Z
2022-06-06T03:38:28Z,42.805,6.029,13.3029,4.60060,2470.707,2022-6-06T05:40:10Z
2022-06-06T03:41:31Z,42.805,6.029,13.3035,4.60070,2470.646,2022-6-06T05:43:14Z
2022-06-06T03:44:34Z,42.805,6.029,13.3017,4.60081,2470.67,2022-6-06T05:46:17Z
2022-06-06T03:47:37Z,42.805,6.029,13.3006,4.60070,2470.67,2022-6-06T05:49:20Z
2022-06-06T03:50:40Z,42.805,6.029,13.3016,4.60067,2470.67,2022-6-06T05:52:23Z
2022-06-06T03:53:43Z,42.805,6.029,13.3029,4.60069,2470.693,2022-6-06T05:55:26Z
2022-06-06T03:56:47Z,42.805,6.029,13.3036,4.60079,2470.717,2022-6-06T05:58:29Z
2022-06-06T03:59:50Z,42.805,6.029,13.3019,4.60067,2470.67,2022-6-06T06:01:32Z
2022-06-06T04:02:53Z,42.805,6.029,13.3035,4.60077,2470.693,2022-6-06T06:04:35Z
2022-06-06T04:05:56Z,42.805,6.029,13.3021,4.60087,2470.707,2022-6-06T06:07:38Z
2022-06-06T04:08:59Z,42.805,6.029,13.3034,4.60059,2470.707,2022-6-06T06:10:42Z
2022-06-06T04:12:02Z,42.805,6.029,13.3009,4.60064,2470.717,2022-6-06T06:13:45Z
2022-06-06T04:15:05Z,42.805,6.029,13.3037,4.60060,2470.646,2022-6-06T06:16:48Z
2022-06-06T04:18:08Z,42.805,6.029,13.3014,4.60068,2470.693,2022-6-06T06:19:51Z
2022-06-06T04:21:11Z,42.805,6.029,13.3041,4.60084,2470.67,2022-6-06T06:22:54Z
2022-06-06T04:24:15Z,42.805,6.029,13.3032,4.60067,2470.67,2022-6-06T06:25:57Z
2022-06-06T04:27:18Z,42.805,6.029,13.3019,4.60064,2470.67,2022-6-06T06:29:00Z
2022-06-06T04:30:21Z,42.805,6.029,13.3005,4.60061,2470.693,2022-6-06T06:32:03Z
2022-06-06T04:33:24Z,42.805,6.029,13.3016,4.60058,2470.693,2022-6-06T06:35:07Z
2022-06-06T04:36:27Z,42.805,6.029,13.3043,4.60059,2470.684,2022-6-06T06:38:10Z
2022-06-06T04:39:30Z,42.805,6.029,13.3021,4.60070,2470.67,2022-6-06T06:41:13Z
2022-06-06T04:42:33Z,42.805,6.029,13.3017,4.60069,2470.661,2022-6-06T06:44:16Z
2022-06-06T04:45:36Z,42.805,6.029,13.3021,4.60062,2470.707,2022-6-06T06:47:19Z
2022-06-06T04:48:39Z,42.805,6.029,13.3015,4.60062,2470.661,2022-6-06T06:50:22Z
2022-06-06T04:51:43Z,42.805,6.029,13.3009,4.60053,2470.684,2022-6-06T06:53:25Z
2022-06-06T04:54:46Z,42.805,6.029,13.3003,4.60049,2470.646,2022-6-06T06:56:28Z
2022-06-06T04:57:49Z,42.805,6.029,13.3004,4.60046,2470.67,2022-6-06T06:59:31Z
2022-06-06T05:00:52Z,42.805,6.029,13.3016,4.60064,2470.67,2022-6-06T07:02:35Z
2022-06-06T05:03:55Z,42.805,6.029,13.3004,4.60057,2470.661,2022-6-06T07:05:38Z
2022-06-06T05:06:58Z,42.805,6.029,13.3005,4.60050,2470.646,2022-6-06T07:08:41Z
2022-06-06T05:10:01Z,42.805,6.029,13.3004,4.60054,2470.67,2022-6-06T07:11:44Z
2022-06-06T05:13:04Z,42.805,6.029,13.3002,4.60050,2470.624,2022-6-06T07:14:47Z
2022-06-06T05:16:07Z,42.805,6.029,13.3002,4.60043,2470.646,2022-6-06T07:17:50Z
2022-06-06T05:19:11Z,42.805,6.029,13.3003,4.60045,2470.646,2022-6-06T07:20:53Z
2022-06-06T05:22:14Z,42.805,6.029,13.3002,4.60039,2470.646,2022-6-06T07:23:56Z
2022-06-06T05:25:17Z,42.805,6.029,13.3004,4.60041,2470.646,2022-6-06T07:27:00Z
2022-06-06T05:28:20Z,42.805,6.029,13.3009,4.60049,2470.679,2022-6-06T07:30:03Z
2022-06-06T05:31:23Z,42.805,6.029,13.3008,4.60047,2470.67,2022-6-06T07:33:06Z
2022-06-06T05:34:26Z,42.805,6.029,13.3004,4.60046,2470.646,2022-6-06T07:36:09Z
2022-06-06T05:37:29Z,42.805,6.029,13.3007,4.60047,2470.656,2022-6-06T07:39:12Z
2022-06-06T05:40:32Z,42.805,6.029,13.3003,4.60039,2470.661,2022-6-06T07:42:15Z
2022-06-06T05:43:36Z,42.805,6.029,13.3005,4.60039,2470.646,2022-6-06T07:45:18Z
2022-06-06T05:46:39Z,42.805,6.029,13.3004,4.60043,2470.646,2022-6-06T07:48:21Z
2022-06-06T05:49:42Z,42.805,6.029,13.3006,4.60039,2470.637,2022-6-06T07:51:24Z
2022-06-06T05:52:45Z,42.805,6.029,13.3004,4.60044,2470.637,2022-6-06T07:54:28Z
2022-06-06T05:55:48Z,42.805,6.029,13.3003,4.60039,2470.646,2022-6-06T07:57:31Z
2022-06-06T05:58:51Z,42.805,6.029,13.3000,4.60036,2470.624,2022-6-06T08:00:34Z
2022-06-06T06:01:54Z,42.805,6.029,13.3000,4.60037,2470.624,2022-6-06T08:03:37Z
2022-06-06T06:04:57Z,42.805,6.029,13.3004,4.60036,2470.624,2022-6-06T08:06:40Z
2022-06-06T06:08:00Z,42.805,6.029,13.3004,4.60036,2470.624,2022-6-06T08:09:43Z
2022-06-06T06:11:04Z,42.805,6.029,13.3009,4.60039,2470.624,2022-6-06T08:12:46Z
2022-06-06T06:14:07Z,42.805,6.029,13.3000,4.60035,2470.646,2022-6-06T08:15:49Z
2022-06-06T06:17:10Z,42.805,6.029,13.3003,4.60038,2470.693,2022-6-06T08:18:52Z
2022-06-06T06:20:13Z,42.805,6.029,13.3005,4.60039,2470.6,2022-6-06T08:21:56Z
2022-06-06T06:23:16Z,42.805,6.029,13.3000,4.60037,2470.624,2022-6-06T08:24:59Z
2022-06-06T06:26:19Z,42.805,6.029,13.3004,4.60036,2470.624,2022-6-06T08:28:02Z
2022-06-06T06:29:22Z,42.805,6.029,13.3003,4.60036,2470.6,2022-6-06T08:31:05Z
2022-06-06T06:32:25Z,42.805,6.029,13.3004,4.60038,2470.637,2022-6-06T08:34:08Z
2022-06-06T06:35:28Z,42.805,6.029,13.3006,4.60038,2470.6,2022-6-06T08:37:11Z
2022-06-06T06:38:32Z,42.805,6.029,13.3001,4.60037,2470.6,2022-6-06T08:40:14Z
2022-06-06T06:41:35Z,42.805,6.029,13.3000,4.60037,2470.661,2022-6-06T08:43:17Z
2022-06-06T06:44:38Z,42.805,6.029,13.3004,4.60037,2470.6,2022-6-06T08:46:20Z
2022-06-06T06:47:41Z,42.805,6.029,13.3004,4.60037,2470.637,2022-6-06T08:49:24Z
2022-06-06T06:50:44Z,42.805,6.029,13.3000,4.60036,2470.661,2022-6-06T08:52:27Z
2022-06-06T06:53:47Z,42.805,6.029,13.3001,4.60036,2470.624,2022-6-06T08:55:30Z
2022-06-06T06:56:50Z,42.805,6.029,13.3000,4.60035,2470.637,2022-6-06T08:58:33Z
2022-06-06T06:59:53Z,42.805,6.029,13.3002,4.60036,2470.624,2022-6-06T09:01:36Z
2022-06-06T07:02:57Z,42.805,6.029,13.3003,4.60035,2470.614,2022-6-06T09:04:39Z
2022-06-06T07:06:00Z,42.805,6.029,13.3000,4.60035,2470.624,2022-6-06T09:07:42Z
2022-06-06T07:09:03Z,42.805,6.029,13.3003,4.60034,2470.624,2022-6-06T09:10:45Z
2022-06-06T07:12:06Z,42.805,6.029,13.3007,4.60035,2470.637,2022-6-06T09:13:49Z
2022-06-06T07:15:09Z,42.805,6.029,13.3000,4.60034,2470.61,2022-6-06T09:16:52Z
2022-06-06T07:18:12Z,42.805,6.029,13.3000,4.60034,2470.637,2022-6-06T09:19:55Z
2022-06-06T07:21:15Z,42.805,6.029,13.3002,4.60033,2470.646,2022-6-06T09:22:58Z
2022-06-06T07:24:18Z,42.805,6.029,13.3006,4.60033,2470.646,2022-6-06T09:26:01Z
2022-06-06T07:27:21Z,42.805,6.029,13.3001,4.60034,2470.624,2022-6-06T09:29:04Z
2022-06-06T07:30:25Z,42.805,6.029,13.3001,4.60033,2470.624,2022-6-06T09:32:07Z
2022-06-06T07:33:28Z,42.805,6.029,13.3001,4.60034,2470.661,2022-6-06T09:35:10Z
2022-06-06T07:36:31Z,42.805,6.029,13.3001,4.60033,2470.624,2022-6-06T09:38:13Z
2022-06-06T07:39:34Z,42.805,6.029,13.3002,4.60033,2470.586,2022-6-06T09:41:17Z
2022-06-06T07:42:37Z,42.805,6.029,13.3002,4.60033,2470.624,2022-6-06T09:44:20Z
2022-06-06T07:45:40Z,42.805,6.029,13.3006,4.60033,2470.661,2022-6-06T09:47:23Z
2022-06-06T07:48:43Z,42.805,6.029,13.3000,4.60034,2470.614,2022-6-06T09:50:26Z
2022-06-06T07:51:46Z,42.805,6.029,13.3000,4.60034,2470.624,2022-6-06T09:53:29Z
2022-06-06T07:54:50Z,42.805,6.029,13.2999,4.60033,2470.646,2022-6-06T09:56:32Z
2022-06-06T07:57:53Z,42.805,6.029,13.3003,4.60034,2470.646,2022-6-06T09:59:35Z
2022-06-06T08:00:56Z,42.805,6.029,13.3003,4.60034,2470.624,2022-6-06T10:02:38Z
2022-06-06T08:03:59Z,42.805,6.029,13.3001,4.60034,2470.637,2022-6-06T10:05:42Z
2022-06-06T08:07:02Z,42.805,6.029,13.3000,4.60034,2470.646,2022-6-06T10:08:45Z
2022-06-06T08:10:05Z,42.805,6.029,13.2996,4.60034,2470.624,2022-6-06T10:11:48Z
2022-06-06T08:13:08Z,42.805,6.029,13.3005,4.60033,2470.624,2022-6-06T10:14:51Z
2022-06-06T08:16:11Z,42.805,6.029,13.3001,4.60033,2470.637,2022-6-06T10:17:54Z
2022-06-06T08:19:14Z,42.805,6.029,13.3004,4.60033,2470.624,2022-6-06T10:20:57Z
2022-06-06T08:22:18Z,42.805,6.029,13.3004,4.60033,2470.624,2022-6-06T10:24:00Z
2022-06-06T08:25:21Z,42.805,6.029,13.3004,4.60033,2470.637,2022-6-06T10:27:03Z
2022-06-06T08:28:24Z,42.805,6.029,13.3001,4.60033,2470.6,2022-6-06T10:30:07Z
2022-06-06T08:31:27Z,42.805,6.029,13.3003,4.60033,2470.624,2022-6-06T10:33:10Z
2022-06-06T08:34:30Z,42.805,6.029,13.3005,4.60034,2470.624,2022-6-06T10:36:13Z
2022-06-06T08:37:33Z,42.805,6.029,13.3005,4.60033,2470.67,2022-6-06T10:39:16Z
2022-06-06T08:40:36Z,42.805,6.029,13.2997,4.60034,2470.637,2022-6-06T10:42:19Z
2022-06-06T08:43:39Z,42.805,6.029,13.3004,4.60034,2470.624,2022-6-06T10:45:22Z
2022-06-06T08:46:43Z,42.805,6.029,13.3006,4.60033,2470.67,2022-6-06T10:48:25Z
2022-06-06T08:49:46Z,42.805,6.029,13.3004,4.60033,2470.646,2022-6-06T10:51:28Z
2022-06-06T08:52:49Z,42.805,6.029,13.3002,4.60033,2470.637,2022-6-06T10:54:32Z
2022-06-06T08:55:52Z,42.805,6.029,13.3001,4.60033,2470.646,2022-6-06T10:57:35Z
2022-06-06T08:58:55Z,42.805,6.029,13.3001,4.60035,2470.684,2022-6-06T11:00:38Z
2022-06-06T09:01:58Z,42.805,6.029,13.3003,4.60033,2470.637,2022-6-06T11:03:41Z
2022-06-06T09:05:01Z,42.805,6.029,13.2998,4.60033,2470.624,2022-6-06T11:06:44Z
2022-06-06T09:08:04Z,42.805,6.029,13.3001,4.60033,2470.637,2022-6-06T11:09:47Z
2022-06-06T09:11:08Z,42.805,6.029,13.3001,4.60033,2470.661,2022-6-06T11:12:50Z
2022-06-06T09:14:11Z,42.805,6.029,13.3003,4.60033,2470.646,2022-6-06T11:15:53Z
2022-06-06T09:17:14Z,42.805,6.029,13.2998,4.60033,2470.646,2022-6-06T11:18:56Z
2022-06-06T09:20:17Z,42.805,6.029,13.3001,4.60033,2470.646,2022-6-06T11:22:00Z
2022-06-06T09:23:20Z,42.805,6.029,13.3002,4.60033,2470.624,2022-6-06T11:25:03Z
2022-06-06T09:26:23Z,42.805,6.029,13.3000,4.60033,2470.661,2022-6-06T11:28:06Z
2022-06-06T09:29:26Z,42.805,6.029,13.3000,4.60033,2470.646,2022-6-06T11:31:09Z
2022-06-06T09:32:29Z,42.805,6.029,13.2999,4.60033,2470.637,2022-6-06T11:34:12Z
2022-06-06T09:35:33Z,42.805,6.029,13.3004,4.60033,2470.637,2022-6-06T11:37:15Z
2022-06-06T09:38:36Z,42.805,6.029,13.3003,4.60033,2470.637,2022-6-06T11:40:18Z
2022-06-06T09:41:39Z,42.805,6.029,13.2998,4.60033,2470.6,2022-6-06T11:43:21Z
2022-06-06T09:44:42Z,42.805,6.029,13.3004,4.60033,2470.646,2022-6-06T11:46:25Z
2022-06-06T09:47:45Z,42.805,6.029,13.3001,4.60033,2470.67,2022-6-06T11:49:28Z
2022-06-06T09:50:48Z,42.805,6.029,13.3004,4.60034,2470.67,2022-6-06T11:52:31Z
2022-06-06T09:53:51Z,42.805,6.029,13.2999,4.60033,2470.684,2022-6-06T11:55:34Z
2022-06-06T09:56:54Z,42.805,6.029,13.3004,4.60035,2470.61,2022-6-06T11:58:37Z
2022-06-06T09:59:58Z,42.805,6.029,13.3000,4.60034,2470.646,2022-6-06T12:01:40Z
2022-06-06T10:03:01Z,42.805,6.029,13.2999,4.60034,2470.684,2022-6-06T12:04:43Z
2022-06-06T10:06:04Z,42.805,6.029,13.3001,4.60034,2470.624,2022-6-06T12:07:46Z
2022-06-06T10:09:07Z,42.805,6.029,13.3004,4.60037,2470.661,2022-6-06T12:10:50Z
2022-06-06T10:12:10Z,42.805,6.029,13.3005,4.60035,2470.646,2022-6-06T12:13:53Z
2022-06-06T10:15:13Z,42.805,6.029,13.3000,4.60034,2470.646,2022-6-06T12:16:56Z
2022-06-06T10:18:16Z,42.805,6.029,13.3000,4.60033,2470.633,2022-6-06T12:19:59Z
2022-06-06T10:21:19Z,42.805,6.029,13.3000,4.60034,2470.67,2022-6-06T12:23:02Z
2022-06-06T10:24:22Z,42.805,6.029,13.3001,4.60033,2470.646,2022-6-06T12:26:05Z
2022-06-06T10:27:26Z,42.805,6.029,13.2999,4.60033,2470.6,2022-6-06T12:29:08Z
2022-06-06T10:30:29Z,42.805,6.029,13.3002,4.60033,2470.646,2022-6-06T12:32:11Z
2022-06-06T10:33:32Z,42.805,6.029,13.3004,4.60034,2470.624,2022-6-06T12:35:15Z
2022-06-06T10:36:35Z,42.805,6.029,13.3004,4.60034,2470.637,2022-6-06T12:38:18Z
2022-06-06T10:39:38Z,42.805,6.029,13.2996,4.60033,2470.646,2022-6-06T12:41:21Z
2022-06-06T10:42:41Z,42.805,6.029,13.3001,4.60033,2470.67,2022-6-06T12:44:24Z
2022-06-06T10:45:44Z,42.805,6.029,13.3000,4.60032,2470.684,2022-6-06T12:47:27Z
2022-06-06T10:48:47Z,42.805,6.029,13.3003,4.60036,2470.646,2022-6-06T12:50:30Z
2022-06-06T10:51:51Z,42.805,6.029,13.3003,4.60035,2470.661,2022-6-06T12:53:33Z
2022-06-06T10:54:54Z,42.805,6.029,13.3001,4.60033,2470.646,2022-6-06T12:56:36Z
2022-06-06T10:57:57Z,42.805,6.029,13.2998,4.60037,2470.646,2022-6-06T12:59:39Z
2022-06-06T11:01:00Z,42.805,6.029,13.3005,4.60033,2470.637,2022-6-06T13:02:43Z
2022-06-06T11:04:03Z,42.805,6.029,13.2998,4.60033,2470.684,2022-6-06T13:05:46Z
2022-06-06T11:07:06Z,42.805,6.029,13.3000,4.60033,2470.646,2022-6-06T13:08:49Z
2022-06-06T11:10:09Z,42.805,6.029,13.3004,4.60034,2470.684,2022-6-06T13:11:52Z
2022-06-06T11:13:12Z,42.805,6.029,13.3000,4.60033,2470.646,2022-6-06T13:14:55Z
2022-06-06T11:16:15Z,42.805,6.029,13.3005,4.60034,2470.646,2022-6-06T13:17:58Z
2022-06-06T11:19:19Z,42.805,6.029,13.3002,4.60034,2470.646,2022-6-06T13:21:01Z
2022-06-06T11:22:22Z,42.805,6.029,13.3004,4.60034,2470.661,2022-6-06T13:24:04Z
2022-06-06T11:25:25Z,42.805,6.029,13.3002,4.60037,2470.67,2022-6-06T13:27:08Z
2022-06-06T11:28:28Z,42.805,6.029,13.3002,4.60036,2470.67,2022-6-06T13:30:11Z
2022-06-06T11:31:31Z,42.805,6.029,13.3001,4.60035,2470.637,2022-6-06T13:33:14Z
2022-06-06T11:34:34Z,42.805,6.029,13.3004,4.60035,2470.646,2022-6-06T13:36:17Z
2022-06-06T11:37:37Z,42.805,6.029,13.3003,4.60033,2470.684,2022-6-06T13:39:20Z
2022-06-06T11:40:40Z,42.805,6.029,13.2999,4.60033,2470.684,2022-6-06T13:42:23Z
2022-06-06T11:43:44Z,42.805,6.029,13.3001,4.60034,2470.67,2022-6-06T13:45:26Z
2022-06-06T11:46:47Z,42.805,6.029,13.3004,4.60033,2470.624,2022-6-06T13:48:29Z
2022-06-06T11:49:50Z,42.805,6.029,13.3000,4.60033,2470.684,2022-6-06T13:51:33Z
2022-06-06T11:52:53Z,42.805,6.029,13.3001,4.60037,2470.624,2022-6-06T13:54:36Z
2022-06-06T11:55:56Z,42.805,6.029,13.3002,4.60033,2470.646,2022-6-06T13:57:39Z
2022-06-06T11:58:59Z,42.805,6.029,13.3006,4.60032,2470.661,2022-6-06T14:00:42Z
2022-06-06T12:02:02Z,42.805,6.029,13.3003,4.60033,2470.646,2022-6-06T14:03:45Z
2022-06-06T12:05:05Z,42.805,6.029,13.3004,4.60032,2470.637,2022-6-06T14:06:48Z
2022-06-06T12:08:09Z,42.805,6.029,13.3003,4.60031,2470.646,2022-6-06T14:09:51Z
2022-06-06T12:11:12Z,42.805,6.029,13.3000,4.60032,2470.661,2022-6-06T14:12:54Z
2022-06-06T12:14:15Z,42.805,6.029,13.3000,4.60031,2470.67,2022-6-06T14:15:57Z
2022-06-06T12:17:18Z,42.805,6.029,13.3002,4.60033,2470.637,2022-6-06T14:19:01Z
2022-06-06T12:20:21Z,42.805,6.029,13.3003,4.60035,2470.624,2022-6-06T14:22:04Z
2022-06-06T12:23:24Z,42.805,6.029,13.3004,4.60039,2470.624,2022-6-06T14:25:07Z
2022-06-06T12:26:27Z,42.805,6.029,13.3004,4.60035,2470.67,2022-6-06T14:28:10Z
2022-06-06T12:29:30Z,42.805,6.029,13.3004,4.60038,2470.646,2022-6-06T14:31:13Z
2022-06-06T12:32:34Z,42.805,6.029,13.3000,4.60034,2470.624,2022-6-06T14:34:16Z
2022-06-06T12:35:37Z,42.805,6.029,13.3000,4.60035,2470.624,2022-6-06T14:37:19Z
2022-06-06T12:38:40Z,42.805,6.029,13.2999,4.60036,2470.624,2022-6-06T14:40:22Z
2022-06-06T12:41:43Z,42.805,6.029,13.3003,4.60038,2470.67,2022-6-06T14:43:26Z
2022-06-06T12:44:46Z,42.805,6.029,13.3000,4.60053,2470.624,2022-6-06T14:46:29Z
2022-06-06T12:47:49Z,42.805,6.029,13.3002,4.60033,2470.624,2022-6-06T14:49:32Z
2022-06-06T12:50:52Z,42.805,6.029,13.2999,4.60035,2470.6,2022-6-06T14:52:35Z
2022-06-06T12:53:55Z,42.805,6.029,13.3003,4.60036,2470.646,2022-6-06T14:55:38Z
2022-06-06T12:56:59Z,42.805,6.029,13.3000,4.60036,2470.624,2022-6-06T14:58:41Z
2022-06-06T13:00:02Z,42.805,6.029,13.3004,4.60039,2470.646,2022-6-06T15:01:44Z
2022-06-06T13:03:05Z,42.805,6.029,13.3002,4.60046,2470.624,2022-6-06T15:04:47Z
2022-06-06T13:06:08Z,42.805,6.029,13.3000,4.60037,2470.624,2022-6-06T15:07:51Z
2022-06-06T13:09:11Z,42.805,6.029,13.3002,4.60036,2470.67,2022-6-06T15:10:54Z
2022-06-06T13:12:14Z,42.805,6.029,13.3001,4.60069,2470.646,2022-6-06T15:13:57Z
2022-06-06T13:15:17Z,42.805,6.029,13.2999,4.60059,2470.624,2022-6-06T15:17:00Z
2022-06-06T13:18:20Z,42.805,6.029,13.3000,4.60036,2470.624,2022-6-06T15:20:03Z
2022-06-06T13:21:23Z,42.805,6.029,13.3003,4.60045,2470.661,2022-6-06T15:23:06Z
2022-06-06T13:24:27Z,42.805,6.029,13.2999,4.60049,2470.646,2022-6-06T15:26:09Z
2022-06-06T13:27:30Z,42.805,6.029,13.3000,4.60044,2470.6,2022-6-06T15:29:12Z
2022-06-06T13:30:33Z,42.805,6.029,13.2999,4.60044,2470.624,2022-6-06T15:32:16Z
2022-06-06T13:33:36Z,42.805,6.029,13.3005,4.60043,2470.6,2022-6-06T15:35:19Z
2022-06-06T13:36:39Z,42.805,6.029,13.3004,4.60056,2470.6,2022-6-06T15:38:22Z
2022-06-06T13:39:42Z,42.805,6.029,13.3000,4.60046,2470.637,2022-6-06T15:41:25Z
2022-06-06T13:42:45Z,42.805,6.029,13.3000,4.60046,2470.637,2022-6-06T15:44:28Z
2022-06-06T13:45:48Z,42.805,6.029,13.3001,4.60047,2470.624,2022-6-06T15:47:31Z
2022-06-06T13:48:52Z,42.805,6.029,13.3000,4.60052,2470.6,2022-6-06T15:50:34Z
2022-06-06T13:51:55Z,42.805,6.029,13.3004,4.60074,2470.624,2022-6-06T15:53:37Z
2022-06-06T13:54:58Z,42.805,6.029,13.3004,4.60062,2470.614,2022-6-06T15:56:40Z
2022-06-06T13:58:01Z,42.805,6.029,13.3004,4.60057,2470.6,2022-6-06T15:59:44Z
2022-06-06T14:01:04Z,42.805,6.029,13.3004,4.60084,2470.6,2022-6-06T16:02:47Z
2022-06-06T14:04:07Z,42.805,6.029,13.3006,4.60103,2470.651,2022-6-06T16:05:50Z
2022-06-06T14:07:10Z,42.805,6.029,13.3019,4.60080,2470.6,2022-6-06T16:08:53Z
2022-06-06T14:10:13Z,42.805,6.029,13.3029,4.60062,2470.6,2022-6-06T16:11:56Z
2022-06-06T14:13:17Z,42.805,6.029,13.3012,4.60068,2470.577,2022-6-06T16:14:59Z
2022-06-06T14:16:20Z,42.805,6.029,13.3019,4.60074,2470.624,2022-6-06T16:18:02Z
2022-06-06T14:19:23Z,42.805,6.029,13.3039,4.60086,2470.637,2022-6-06T16:21:05Z
2022-06-06T14:22:26Z,42.805,6.029,13.3043,4.60079,2470.591,2022-6-06T16:24:09Z
2022-06-06T14:25:29Z,42.805,6.029,13.3041,4.60086,2470.624,2022-6-06T16:27:12Z
2022-06-06T14:28:32Z,42.805,6.029,13.3042,4.60085,2470.637,2022-6-06T16:30:15Z
2022-06-06T14:31:35Z,42.805,6.029,13.3050,4.60087,2470.6,2022-6-06T16:33:18Z
2022-06-06T14:34:38Z,42.805,6.029,13.3029,4.60074,2470.624,2022-6-06T16:36:21Z
2022-06-06T14:37:42Z,42.805,6.029,13.3054,4.60093,2470.637,2022-6-06T16:39:24Z
2022-06-06T14:40:45Z,42.805,6.029,13.3075,4.60090,2470.6,2022-6-06T16:42:27Z
2022-06-06T14:43:48Z,42.805,6.029,13.3076,4.60082,2470.614,2022-6-06T16:45:30Z
2022-06-06T14:46:51Z,42.805,6.029,13.3073,4.60067,2470.577,2022-6-06T16:48:34Z
2022-06-06T14:49:54Z,42.805,6.029,13.3069,4.60064,2470.637,2022-6-06T16:51:37Z
2022-06-06T14:52:57Z,42.805,6.029,13.3069,4.60067,2470.637,2022-6-06T16:54:40Z
2022-06-06T14:56:00Z,42.805,6.029,13.3065,4.60077,2470.553,2022-6-06T16:57:43Z
2022-06-06T14:59:03Z,42.805,6.029,13.3068,4.60064,2470.614,2022-6-06T17:00:46Z
2022-06-06T15:02:06Z,42.805,6.029,13.3081,4.60085,2470.637,2022-6-06T17:03:49Z
2022-06-06T15:05:10Z,42.805,6.029,13.3066,4.60095,2470.591,2022-6-06T17:06:52Z
2022-06-06T15:08:13Z,42.805,6.029,13.3061,4.60088,2470.614,2022-6-06T17:09:55Z
2022-06-06T15:11:16Z,42.805,6.029,13.3079,4.60098,2470.567,2022-6-06T17:12:59Z
2022-06-06T15:14:19Z,42.805,6.029,13.3071,4.60081,2470.614,2022-6-06T17:16:02Z